GFSMW_250_spd_267.txt.gz
Wind_Speed
53 51 50 50 47 46 47 50 51 49 47 48 49 49 49 51 50 49 51 50 48 48 50 51 52 52 51 50 52 53 54 55 54 51 50 51 51 54 55 55 54 54 55
46 46 47 48 47 49 49 50 48 49 50 52 53 54 54 53 57 55 54 53 57 57 59 59 63 61 61 58 60 61 63 64 64 64 64 61 60 61 59 60 62 63 62
53 53 53 52 51 50 51 51 52 53 54 56 56 58 58 61 63 66 64 64 67 69 68 72 75 75 77 75 77 77 79 75 77 79 78 73 71 74 74 75 71 70 70
57 56 58 56 52 53 57 59 59 59 60 61 62 63 66 67 69 71 74 76 78 80 81 82 82 82 83 85 88 90 89 90 88 88 88 87 84 83 84 85 82 79 75
62 61 60 57 57 58 60 61 64 64 65 66 68 72 75 75 75 78 81 83 87 89 91 92 91 91 91 90 89 90 91 91 90 92 95 97 96 96 90 84 93 88 86
59 61 64 64 64 63 64 65 66 69 71 73 75 78 81 83 85 87 89 90 89 88 91 92 93 92 98 100 100 99 99 101 102 102 99 96 97 97 97 94 92 93 98
69 65 66 68 69 69 69 70 72 73 76 76 78 81 83 85 87 89 91 91 92 95 98 101 105 108 106 102 104 104 104 104 103 104 107 109 107 105 102 100 100 97 98
72 72 73 74 74 75 76 76 75 76 78 80 82 85 84 88 91 92 92 95 100 103 105 104 101 97 95 94 94 94 96 98 100 102 103 103 107 111 110 108 105 103 102
79 76 73 75 74 74 75 75 77 77 80 84 86 89 91 94 91 95 102 101 109 105 97 97 94 89 87 86 86 87 88 90 92 94 98 100 101 105 108 112 113 110 106
74 74 76 75 75 75 76 78 79 81 82 86 88 91 94 95 101 103 104 104 97 97 94 90 86 82 81 81 81 83 84 85 87 88 91 94 96 98 100 105 111 116 117
81 77 79 78 78 77 76 78 81 85 89 90 93 96 98 100 103 99 97 95 91 88 87 86 85 82 80 80 79 79 80 82 83 85 86 87 90 93 96 100 103 107 115
79 81 80 78 78 78 82 87 87 88 89 93 96 96 96 95 94 92 91 86 84 85 86 83 81 77 75 73 73 74 76 77 78 80 81 83 85 88 91 94 98 100 104
77 77 80 83 83 84 83 83 86 90 92 92 92 91 88 89 85 84 80 82 84 82 79 76 72 69 68 68 69 71 74 76 78 80 82 83 84 86 88 91 92 96 100
79 79 79 81 83 84 86 87 88 90 88 87 83 80 78 79 78 77 81 80 77 73 70 65 63 62 63 65 68 71 74 76 79 81 83 85 85 86 88 88 88 92 96
79 80 84 85 84 85 88 87 85 84 80 77 75 74 72 73 74 79 77 73 71 66 62 60 57 57 60 63 67 71 75 77 81 84 86 86 87 88 88 85 83 82 86
83 86 88 88 85 85 83 79 77 75 72 71 69 67 69 71 76 74 68 67 66 62 59 56 54 55 58 61 65 69 74 78 82 84 88 89 89 88 87 86 80 78 79
79 83 84 83 83 78 73 73 70 67 66 64 63 64 67 72 67 62 61 61 59 57 57 57 57 58 61 65 70 75 80 84 88 90 88 90 90 86 83 85 82 79 80
80 79 79 78 70 66 66 66 64 61 60 59 60 63 63 58 57 57 55 54 53 53 55 57 60 62 65 69 73 77 81 85 89 91 90 88 89 85 82 83 83 82 81
73 71 70 66 63 63 64 62 60 57 54 54 57 54 52 51 50 49 51 54 57 60 62 64 67 69 71 74 76 79 80 82 83 85 86 84 83 82 80 80 78 77 76
67 65 63 62 62 63 62 59 55 52 50 51 47 45 44 45 45 48 51 53 57 60 63 66 70 72 74 77 79 78 78 78 78 80 79 79 79 78 75 70 69 69 72
65 64 63 62 62 59 57 55 52 51 48 49 47 45 45 44 47 50 54 58 63 65 68 70 72 74 75 78 80 79 80 78 78 77 74 74 76 73 69 65 64 63 64
65 63 61 60 58 56 55 52 53 52 49 48 47 46 48 48 51 54 57 60 65 70 73 75 78 79 81 82 84 86 85 83 81 80 76 72 73 71 67 62 58 57 58
64 61 60 58 56 55 53 53 52 52 50 48 49 49 50 52 55 58 59 64 68 73 76 79 82 84 85 86 87 89 88 88 87 85 80 76 70 68 65 60 58 54 52
61 60 58 57 55 53 53 53 51 52 51 50 51 51 53 56 59 61 63 67 72 77 80 83 85 86 87 88 89 90 88 89 88 84 79 76 70 63 61 59 55 52 50
60 57 57 56 54 52 52 52 51 52 52 52 51 52 55 58 62 63 67 69 76 79 83 86 86 87 89 91 92 90 88 86 85 81 76 68 62 55 53 50 52 51 48
56 55 57 55 53 52 53 52 51 53 54 52 52 55 58 62 65 68 69 75 80 82 85 88 90 93 93 95 95 94 91 88 85 79 74 70 61 54 52 47 44 44 44

GFSMW_250_spd_273.txt.gz
Wind_Speed
46 47 48 49 49 50 48 44 42 39 38 40 46 45 43 45 42 43 42 39 40 41 42 44 43 45 46 51 53 56 59 61 62 63 65 68 69 69 69 70 71 68 70
49 50 51 52 52 53 51 50 49 45 45 42 44 44 47 44 45 43 43 45 45 46 47 48 52 55 58 60 63 66 68 68 70 72 72 75 79 79 80 81 81 78 81
53 52 53 53 55 56 53 51 50 51 49 47 45 46 45 45 46 45 46 47 48 50 54 57 61 63 65 67 70 73 76 78 80 79 77 76 76 80 86 87 88 87 88
55 53 54 51 54 55 53 52 53 53 52 51 48 47 47 48 52 52 52 53 55 55 59 62 64 67 71 75 76 77 79 80 83 85 84 86 84 83 84 91 93 94 94
60 54 55 56 55 52 53 55 55 55 55 50 50 51 50 55 54 56 57 59 60 65 68 71 72 74 77 78 81 84 84 86 88 91 95 88 86 86 84 86 97 101 104
58 57 59 57 55 56 55 54 58 59 56 55 53 53 54 55 56 59 62 65 67 70 72 75 77 80 82 85 86 87 89 93 96 92 93 92 91 90 86 83 85 92 103
59 52 55 59 56 57 64 59 60 60 58 56 57 55 55 58 60 63 67 70 72 75 78 79 83 84 85 87 89 92 99 96 95 92 89 86 85 84 85 85 83 82 89
65 64 57 56 59 60 63 63 62 62 60 59 58 59 58 62 64 69 72 74 78 81 83 84 84 86 90 94 97 103 102 96 93 90 86 85 83 81 79 78 80 82 85
79 73 65 60 58 58 61 64 62 62 64 62 60 61 63 67 70 72 75 79 82 84 83 84 88 92 94 101 106 98 94 91 87 85 82 80 79 79 76 74 73 72 74
83 78 73 69 67 65 62 61 61 62 63 63 65 66 70 72 74 77 80 82 83 82 86 90 93 95 101 102 94 91 89 86 83 80 78 77 75 74 72 72 72 72 69
91 85 77 78 76 73 71 71 71 70 71 73 75 75 74 75 77 81 82 83 83 86 90 93 95 100 100 91 87 84 84 81 78 76 73 72 72 72 73 74 75 74 73
86 82 83 84 83 80 79 77 76 76 77 79 75 75 77 77 79 79 80 82 84 89 91 94 98 98 88 83 80 78 76 73 73 72 73 73 75 77 78 80 81 81 83
80 78 78 78 78 81 79 78 75 76 76 76 75 75 77 78 78 81 81 83 88 90 92 96 94 85 80 76 76 74 71 70 70 72 72 74 77 79 81 84 86 88 89
86 86 82 80 78 75 73 74 77 78 80 78 77 78 79 79 81 82 84 87 89 90 95 91 82 77 74 72 69 68 68 68 71 75 77 79 80 81 82 84 86 87 90
86 86 82 77 74 74 76 78 80 80 79 77 79 78 79 81 83 83 86 88 90 92 87 80 76 70 67 67 68 67 68 70 73 77 80 83 85 87 88 88 88 88 90
82 82 79 75 73 76 78 79 78 78 79 78 79 79 79 81 81 85 87 88 90 85 77 75 70 66 66 66 67 68 68 70 73 77 82 87 89 92 94 96 94 91 90
75 73 68 69 69 72 78 79 79 78 77 77 77 77 79 82 84 85 87 89 84 76 74 70 65 64 65 67 70 70 69 71 76 81 85 92 95 96 98 99 96 95 94
74 72 70 71 72 74 75 76 75 75 74 76 78 79 80 82 83 85 88 82 76 72 70 68 64 63 65 67 68 66 68 74 80 85 90 96 99 100 103 101 96 94 92
78 77 75 73 75 72 73 72 74 76 77 77 77 78 79 81 85 86 80 76 71 70 69 67 64 64 65 65 67 69 73 78 84 89 95 98 102 104 104 102 96 96 94
88 84 79 77 74 71 71 73 73 74 73 74 75 77 81 84 83 79 74 71 70 69 67 66 65 65 65 65 67 71 76 81 86 93 99 103 106 107 107 102 97 93 89
90 84 76 66 70 70 70 71 71 70 72 74 77 80 83 80 76 73 70 69 70 69 66 65 65 66 66 66 69 73 77 83 87 93 100 105 110 111 110 102 96 89 83
73 68 65 64 70 71 70 72 71 74 76 78 79 78 77 73 71 69 67 70 70 67 67 65 66 67 68 69 72 75 80 86 91 97 104 109 112 115 112 105 99 88 80
79 76 77 73 74 73 75 77 78 80 78 75 74 73 72 69 67 67 68 69 68 67 67 66 67 68 70 72 76 79 84 90 96 101 106 112 115 117 113 107 96 84 76
79 78 76 78 78 77 78 78 78 75 74 71 70 70 68 68 67 68 68 67 67 67 67 67 68 70 72 76 79 82 86 93 99 102 107 112 116 114 109 104 92 81 72
80 76 76 78 78 75 74 73 72 70 69 68 69 68 68 68 68 68 66 65 66 66 67 67 68 70 73 77 81 82 86 93 98 102 106 111 116 111 110 106 92 80 70
75 75 76 73 70 71 72 70 68 66 67 68 67 67 66 67 67 65 64 66 66 67 66 67 69 72 75 78 80 81 86 93 99 104 108 112 113 108 105 98 89 80 72

GFSMW_250_spd_276.txt.gz
Wind_Speed
55 53 52 48 46 46 48 48 44 45 42 40 40 42 44 41 43 44 43 41 39 40 37 37 40 40 40 42 44 47 50 53 57 59 61 66 70 72 75 76 78 80 81
55 54 54 52 49 48 49 52 50 49 48 44 43 46 45 47 48 48 48 46 44 43 45 46 44 45 48 49 52 54 55 59 62 65 67 73 74 75 79 81 83 84 88
54 56 56 52 51 51 52 53 54 53 50 46 43 48 48 47 48 50 50 48 47 46 48 49 50 52 54 56 59 63 65 66 68 71 73 73 74 78 80 84 85 86 88
54 56 55 55 55 53 52 52 53 53 49 45 43 45 52 52 52 50 50 49 49 51 49 51 54 58 61 63 68 70 71 74 76 74 74 77 77 78 82 87 87 87 89
61 59 61 60 58 56 53 51 53 53 49 46 43 44 49 53 51 51 50 51 50 50 52 55 59 61 67 71 75 76 79 79 76 78 81 83 81 76 77 79 82 86 88
70 64 66 60 58 55 54 54 54 50 47 46 44 47 54 55 53 53 52 51 52 55 56 59 64 71 74 76 78 80 79 78 80 83 89 86 81 78 76 73 74 75 79
71 69 62 59 58 59 58 57 57 53 51 50 50 51 54 57 55 54 53 56 57 60 63 66 74 75 77 78 82 81 80 82 87 92 89 84 82 79 75 72 69 67 69
74 75 69 61 62 62 59 55 55 54 52 53 57 60 60 61 60 57 57 59 63 66 70 74 77 77 81 83 79 79 83 89 93 92 88 85 79 75 72 70 67 64 63
83 81 76 70 67 62 59 59 56 53 53 57 59 61 58 57 58 60 61 64 68 73 78 80 79 82 83 81 80 84 89 94 96 89 86 80 76 73 72 71 69 65 58
89 83 82 78 74 70 68 64 58 56 56 54 56 57 58 60 63 63 68 71 75 78 81 80 83 84 83 81 85 89 94 98 90 86 79 74 72 72 73 73 73 73 70
91 88 86 84 82 77 73 70 66 61 59 59 59 61 64 65 68 71 74 76 79 82 82 82 83 83 83 85 89 93 96 90 85 78 73 72 73 75 76 78 80 81 81
89 90 88 88 89 84 81 78 75 70 70 69 69 71 71 74 75 75 78 78 79 81 82 83 82 82 84 89 92 95 91 83 78 73 72 73 75 78 78 79 83 86 90
90 90 86 84 86 89 87 84 81 78 76 74 76 78 80 79 77 77 78 79 80 79 80 81 82 84 87 91 93 91 83 77 73 72 73 74 74 75 78 83 87 90 94
88 90 86 86 86 83 82 82 82 82 81 80 78 79 80 80 77 77 77 80 79 80 82 82 84 86 90 91 88 84 78 75 72 72 73 76 76 80 82 87 92 95 99
81 84 88 88 86 83 82 81 81 80 77 76 76 77 78 75 76 78 79 78 79 80 80 82 85 89 89 90 83 79 77 75 73 72 75 75 78 82 88 92 96 101 105
78 77 82 84 84 85 83 81 80 80 80 80 80 78 76 76 78 78 77 78 78 79 82 84 87 88 89 85 79 77 76 75 74 75 78 78 80 85 90 97 104 110 112
76 73 74 77 80 81 83 83 82 81 79 76 77 75 76 77 75 77 76 76 78 81 82 85 86 88 87 80 76 75 76 76 75 76 80 82 84 87 93 100 107 114 118
73 70 74 75 73 73 71 72 73 72 72 71 71 74 75 73 74 72 74 76 79 80 83 84 87 87 81 77 75 75 76 76 76 78 81 84 86 91 97 102 109 115 120
76 71 76 75 63 62 64 68 68 70 71 71 71 69 69 70 70 71 73 76 78 80 81 85 86 80 78 76 75 76 75 76 77 80 84 87 90 94 100 104 109 114 121
81 75 71 68 62 61 67 70 70 69 68 67 67 69 69 69 69 72 76 76 77 80 84 84 78 76 75 75 76 75 75 76 77 80 85 87 91 97 101 103 107 114 120
86 83 76 71 64 62 67 68 67 67 67 64 63 65 68 69 73 74 76 77 79 85 81 76 74 74 74 76 76 74 75 75 75 79 82 87 93 96 98 103 110 118 119
88 82 82 79 77 73 73 71 72 69 69 69 68 69 70 73 76 77 78 81 84 79 75 74 74 74 75 75 73 73 73 74 75 78 82 87 91 93 99 105 112 116 116
92 88 89 79 78 81 82 80 79 77 69 68 69 72 73 77 75 77 83 82 76 73 72 73 74 75 75 73 72 73 73 74 76 79 83 88 91 96 102 107 114 116 115
89 88 87 84 86 86 85 86 85 79 76 76 73 74 73 74 80 81 79 74 72 71 72 74 74 75 74 72 73 74 75 76 78 81 85 90 94 98 100 107 113 115 115
83 80 74 74 75 74 71 69 68 70 69 69 73 76 78 79 79 77 71 70 70 71 72 74 74 74 72 72 74 75 76 77 78 82 85 91 94 97 102 110 113 114 111
86 85 80 72 69 69 69 67 68 69 72 73 75 76 77 77 73 70 69 70 70 72 73 74 73 73 72 73 75 75 76 77 79 82 86 91 93 97 104 110 113 113 108

GFSMW_250_spd_282.txt.gz
Wind_Speed
71 67 63 62 56 54 52 55 56 54 51 51 49 44 44 46 45 44 44 42 41 43 45 46 44 44 44 44 40 44 45 46 45 46 49 50 55 61 63 68 72 77 79
65 70 65 62 60 55 56 54 57 57 56 54 53 50 45 45 47 47 45 48 43 44 45 49 50 50 47 46 46 48 49 48 47 49 58 59 63 64 69 74 78 83 86
71 71 66 64 64 60 59 59 58 57 57 58 56 53 49 48 50 49 50 49 47 46 47 49 52 52 53 48 49 52 50 51 55 58 61 64 67 70 76 81 85 90 89
74 75 72 72 70 69 66 62 62 60 58 59 59 57 53 50 52 53 53 52 50 49 50 50 51 51 50 55 52 54 56 58 61 63 65 68 73 76 84 88 91 88 87
77 77 78 76 73 72 67 65 62 58 56 59 61 59 57 56 55 56 56 53 52 52 51 53 52 50 52 54 54 56 60 63 65 67 68 72 77 82 85 91 92 89 88
80 80 78 77 75 74 68 66 64 64 61 60 62 63 62 59 58 56 54 52 53 52 53 54 53 52 53 54 56 60 65 67 68 68 73 80 86 89 90 90 84 84 86
78 83 82 78 79 79 73 67 66 66 59 61 64 64 64 63 61 56 53 50 50 53 53 54 55 56 56 58 62 65 68 70 71 75 79 86 88 89 92 87 84 84 89
73 76 76 83 82 82 81 74 71 71 70 68 68 66 66 65 65 65 61 58 55 53 54 55 55 58 59 62 65 66 70 72 77 81 85 89 89 90 89 88 85 87 93
75 72 76 83 85 88 84 79 74 73 70 67 63 62 60 60 60 60 58 56 55 55 52 52 57 58 62 63 66 70 74 78 80 83 86 87 88 90 91 89 89 90 93
76 75 78 80 86 91 90 82 81 76 75 75 74 71 67 63 59 59 60 61 62 61 59 58 60 61 64 67 69 74 76 79 82 84 87 88 90 91 89 89 92 96 98
81 85 85 85 81 83 85 84 83 83 81 78 76 75 71 67 64 58 58 58 58 59 61 63 66 68 70 71 73 76 79 82 81 85 87 91 93 90 88 93 96 100 100
87 92 89 85 81 81 81 81 82 84 86 81 78 77 74 72 70 65 60 61 62 62 60 61 65 67 69 74 79 79 82 83 85 87 90 94 92 88 92 97 101 105 99
90 92 92 88 82 81 82 82 82 87 89 84 81 81 79 77 73 69 66 62 64 62 61 62 67 72 78 80 82 79 83 83 87 90 93 92 87 92 98 100 104 104 99
90 92 92 92 89 86 84 83 81 82 82 86 85 82 80 79 79 74 71 70 69 66 71 74 78 78 79 78 78 80 82 85 89 91 91 88 91 95 100 104 106 100 98
100 100 96 93 93 91 86 85 84 82 78 78 81 84 84 83 82 81 78 76 74 76 76 75 76 77 77 78 78 81 83 86 90 89 89 91 93 100 104 106 103 99 97
106 101 97 93 94 92 90 89 86 86 83 79 76 77 83 85 85 84 83 82 79 78 78 77 76 75 73 76 77 80 83 87 88 88 88 93 98 103 105 107 100 99 97
109 104 100 96 95 96 95 91 88 87 83 82 78 76 75 80 84 84 83 81 80 78 78 75 72 71 73 73 77 81 83 86 85 86 90 93 100 106 109 101 100 99 95
109 95 98 98 99 99 100 93 87 84 81 79 80 78 75 73 76 80 80 79 79 78 73 69 69 72 71 76 78 80 84 84 84 91 93 97 104 106 101 99 98 95 93
105 101 99 95 93 93 91 87 84 79 78 77 75 74 73 72 71 72 74 74 73 72 73 73 71 73 74 74 77 80 81 81 88 91 94 99 105 98 95 96 95 92 92
106 98 93 90 86 82 80 80 77 76 75 75 73 70 69 69 66 65 66 67 68 67 67 68 68 68 72 76 79 79 79 85 90 92 95 102 96 93 94 93 90 88 90
104 96 95 89 86 80 77 75 74 73 75 76 70 65 65 64 64 64 62 61 59 61 62 66 68 70 74 77 76 79 84 88 90 93 98 96 91 92 92 91 88 86 89
94 96 90 87 86 82 78 76 75 79 78 75 68 62 63 61 62 60 58 56 56 59 63 65 66 71 73 75 78 82 83 86 92 97 96 92 91 93 92 90 88 87 91
94 87 83 86 84 86 86 82 81 79 77 73 67 63 62 61 56 55 54 52 55 59 64 66 69 71 74 76 78 79 84 93 93 95 93 92 92 92 91 90 88 88 91
87 89 89 84 84 83 84 87 83 78 70 69 65 61 62 62 60 60 60 57 60 63 66 67 71 73 77 77 81 85 89 88 93 93 93 93 92 91 91 90 89 89 92
81 82 84 82 80 81 82 81 78 73 69 65 62 61 64 64 60 61 62 58 62 65 67 69 72 75 79 81 83 82 86 91 90 93 92 93 90 89 90 89 89 91 94
77 80 78 80 79 73 77 78 75 70 66 63 66 63 65 65 60 65 64 64 67 69 71 75 77 79 80 78 79 84 86 88 90 91 91 90 88 89 90 90 91 93 94

GFSMW_250_spd_288.txt.gz
Wind_Speed
74 71 68 63 63 63 61 60 59 56 53 54 53 48 45 41 45 48 46 43 42 43 44 45 45 45 45 45 46 44 44 45 45 49 52 54 56 58 58 58 61 62 62
80 76 71 66 66 67 65 65 66 65 60 58 57 54 54 49 45 49 50 51 51 48 47 47 47 47 49 50 50 49 49 49 51 53 55 57 57 57 59 63 63 64 65
77 77 72 68 67 69 67 68 70 67 63 61 61 58 57 57 53 47 50 54 53 54 55 54 52 52 52 51 53 54 55 54 55 57 58 62 62 61 63 63 65 66 70
85 84 84 83 83 83 75 71 68 68 65 63 63 61 60 59 55 54 51 51 52 54 55 56 55 55 55 52 53 54 57 59 59 60 60 61 64 66 67 64 68 71 74
82 85 87 88 88 89 85 77 77 74 68 64 65 65 63 60 57 58 57 55 54 53 55 57 58 58 60 58 56 54 56 58 59 60 62 63 66 66 66 69 71 74 76
78 80 84 84 84 88 86 84 82 81 77 73 69 66 66 65 63 61 61 58 58 57 53 53 58 60 60 58 57 55 56 55 59 60 62 66 67 67 71 75 74 74 78
77 74 72 75 78 81 81 84 85 83 80 77 74 70 69 69 68 66 63 65 66 60 55 56 55 56 56 58 58 59 58 59 61 62 65 66 67 71 71 73 77 81 83
88 73 72 77 76 77 77 80 81 81 79 78 75 73 69 70 71 71 69 63 60 59 56 58 58 57 57 59 60 64 64 62 63 66 64 66 69 70 72 75 79 83 86
93 89 88 82 83 81 80 78 78 80 80 80 79 80 78 79 78 75 69 65 67 65 62 57 55 59 62 63 63 59 59 62 64 66 67 68 69 70 71 74 78 84 90
100 97 95 90 87 90 88 83 78 75 74 73 75 80 81 79 78 78 74 68 69 67 67 70 68 68 68 69 64 61 59 61 64 66 69 70 70 72 74 77 79 86 94
104 101 99 98 95 95 91 87 86 82 78 75 74 74 76 78 79 79 76 71 69 68 72 73 74 72 71 73 73 73 72 70 68 69 72 73 75 76 79 81 84 91 94
110 104 100 98 96 93 93 90 85 84 82 79 77 76 75 73 74 78 78 80 79 75 73 74 75 76 79 78 79 79 81 77 76 78 79 80 82 84 81 85 88 91 94
109 106 101 99 100 99 98 95 89 88 84 81 81 78 78 77 73 71 72 75 79 86 84 79 78 80 81 81 82 83 84 83 81 80 81 81 82 85 87 88 93 95 94
106 98 97 99 102 100 99 97 94 92 87 84 83 81 79 78 76 74 72 70 70 73 78 83 87 87 87 88 89 87 86 84 84 84 84 86 89 91 91 95 93 92 91
96 90 92 98 100 100 99 98 99 97 92 88 87 84 82 78 76 74 72 70 69 71 71 72 73 74 76 79 84 89 90 90 89 89 89 91 91 92 91 91 91 89 91
85 83 91 91 94 93 94 95 99 101 95 93 92 90 87 84 80 76 72 71 71 72 70 70 71 71 72 72 73 76 79 82 84 88 94 96 94 92 90 89 87 88 89
85 80 83 83 86 90 90 90 94 99 94 91 91 89 89 87 83 79 77 76 75 72 72 72 73 73 72 73 76 79 81 80 81 80 81 81 81 84 83 82 85 86 88
87 82 79 76 80 87 88 90 87 94 94 87 90 91 91 88 85 84 82 80 80 79 76 75 75 76 75 75 75 74 76 77 77 76 75 75 76 75 77 81 83 86 85
83 80 77 73 77 83 91 96 102 103 99 89 86 87 88 90 89 88 85 82 82 79 75 75 76 76 78 77 74 72 71 73 71 71 71 72 72 73 77 81 81 83 85
82 77 77 73 71 75 79 90 97 102 106 99 93 84 84 83 84 83 82 80 80 79 78 76 77 76 78 78 74 72 71 69 67 68 68 69 70 73 74 78 80 81 87
83 76 76 75 77 78 79 82 88 89 97 94 87 85 83 79 83 86 82 78 79 79 79 78 77 80 81 78 74 71 69 65 64 66 66 69 70 71 77 79 79 83 88
87 82 81 77 79 81 83 82 81 87 89 91 92 92 90 88 83 79 80 81 83 84 86 87 84 82 78 74 69 68 67 65 68 70 70 72 70 71 73 78 80 84 89
89 86 84 80 76 77 79 82 82 80 80 82 85 88 89 84 82 83 84 82 81 82 79 79 76 73 71 69 68 71 69 66 66 70 72 69 69 73 77 78 82 85 89
88 87 85 79 76 77 76 79 79 78 76 74 77 80 82 80 81 79 76 74 74 79 77 68 64 64 66 67 70 71 69 66 67 66 67 70 69 75 79 80 83 87 88
92 85 81 80 76 75 76 76 74 70 72 75 71 71 68 64 64 68 70 69 66 66 66 65 62 62 64 66 69 70 68 69 69 70 69 70 72 75 80 83 85 87 88
89 88 79 80 77 74 71 72 75 75 73 75 72 64 63 64 60 61 65 70 69 67 67 64 61 63 64 67 68 68 68 70 71 70 68 69 72 77 81 84 86 84 88